TimeCST,TemperatureF,Dew PointF,Humidity,Sea Level PressureIn,VisibilityMPH,Wind Direction,Wind SpeedMPH,Gust SpeedMPH,PrecipitationIn,Events,Conditions,WindDirDegrees,DateUTC
12:00 AM,64.4,62.6,94,30.27,5.0,North,4.6,-,N/A,,Overcast,360,2013-10-19 06:00:00
1:00 AM,64.4,62.6,94,30.24,3.7,Calm,Calm,-,N/A,,Scattered Clouds,0,2013-10-19 07:00:00
1:45 AM,-9999,-9999,N/A,-9999,1.2,Calm,Calm,-,N/A,,Mostly Cloudy,0,2013-10-19 07:45:00
2:00 AM,64.4,62.6,94,30.24,1.6,Calm,Calm,-,N/A,,Mostly Cloudy,0,2013-10-19 08:00:00
3:00 AM,64.4,62.6,94,30.24,1.9,Calm,Calm,-,N/A,,Mostly Cloudy,0,2013-10-19 09:00:00
4:00 AM,64.4,62.6,94,30.24,3.7,North,6.9,-,N/A,,Mostly Cloudy,360,2013-10-19 10:00:00
5:00 AM,64.4,62.6,94,30.24,6.2,North,6.9,-,N/A,,Mostly Cloudy,360,2013-10-19 11:00:00
6:00 AM,64,62,90,29.95,25,North,6.9,,,,Partly Cloudy,0,2013-10-19 12:00:00
6:00 AM,64.4,62.6,94,30.24,6.2,North,6.9,-,N/A,,Mostly Cloudy,360,2013-10-19 12:00:00
7:00 AM,64.4,60.8,88,30.24,6.2,North,9.2,-,N/A,,Mostly Cloudy,360,2013-10-19 13:00:00
8:00 AM,68.0,62.6,83,30.27,6.2,NNE,9.2,-,N/A,,Mostly Cloudy,30,2013-10-19 14:00:00
9:00 AM,71.6,62.6,73,30.27,6.2,NNE,9.2,-,N/A,,Mostly Cloudy,30,2013-10-19 15:00:00
10:00 AM,73.4,62.6,69,30.27,6.2,North,6.9,-,N/A,,Scattered Clouds,360,2013-10-19 16:00:00
11:00 AM,75.2,64.4,69,30.24,6.2,North,6.9,-,N/A,,Scattered Clouds,360,2013-10-19 17:00:00
12:00 PM,78,61,46,29.86,25,East,6.9,,,,Partly Cloudy,90,2013-10-19 18:00:00
12:00 PM,77.0,60.8,57,30.21,6.2,East,6.9,-,N/A,,Scattered Clouds,90,2013-10-19 18:00:00
12:15 PM,-9999,-9999,N/A,-9999,6.2,South,9.2,-,N/A,,Partly Cloudy,170,2013-10-19 18:15:00
12:49 PM,-9999,-9999,N/A,-9999,6.2,South,9.2,-,N/A,Thunderstorm,Thunderstorm,180,2013-10-19 18:49:00
1:00 PM,73.4,64.4,73,30.21,6.2,South,11.5,-,N/A,Rain-Thunderstorm,Thunderstorms and Rain,180,2013-10-19 19:00:00
2:00 PM,68.0,66.2,94,30.18,3.7,South,6.9,-,N/A,Rain-Thunderstorm,Thunderstorms and Rain,180,2013-10-19 20:00:00
2:24 PM,-9999,-9999,N/A,-9999,5.0,SSW,6.9,-,N/A,,Light Drizzle,210,2013-10-19 20:24:00
3:00 PM,68.0,64.4,88,30.18,6.2,South,9.2,-,N/A,,Light Drizzle,180,2013-10-19 21:00:00
4:00 PM,-9999,-9999,N/A,30.18,5.0,South,6.9,-,N/A,,Light Drizzle,180,2013-10-19 22:00:00
4:20 PM,-9999,-9999,N/A,-9999,4.3,South,6.9,-,N/A,,Partly Cloudy,180,2013-10-19 22:20:00
5:00 PM,68.0,64.4,88,30.21,5.0,South,4.6,-,N/A,,Scattered Clouds,180,2013-10-19 23:00:00
6:00 PM,66.2,64.4,94,30.21,6.2,South,6.9,-,N/A,,Mostly Cloudy,180,2013-10-20 00:00:00
7:00 PM,66.2,64.4,94,30.24,5.0,South,6.9,-,N/A,Rain,Light Rain,180,2013-10-20 01:00:00
8:00 PM,66.2,64.4,94,30.27,4.3,South,4.6,-,N/A,Rain,Rain,180,2013-10-20 02:00:00
8:25 PM,-9999,-9999,N/A,-9999,1.9,Calm,Calm,-,N/A,,Light Drizzle,0,2013-10-20 02:25:00
9:00 PM,64.4,64.4,100,30.27,2.5,Calm,Calm,-,N/A,,Mostly Cloudy,0,2013-10-20 03:00:00
10:00 PM,64.4,62.6,94,30.30,4.3,North,4.6,-,N/A,,Mostly Cloudy,360,2013-10-20 04:00:00
11:00 PM,64.4,62.6,94,30.27,5.0,North,4.6,-,N/A,,Mostly Cloudy,360,2013-10-20 05:00:00